Home > Weather > Atlanta > Past weeks

Flag for USA Past Weather in Atlanta, Georgia, USA — Yesterday and Last 2 Weeks

Now
73 °F

Thundershowers. Scattered clouds.


Feels Like: 72 °F
Forecast: 76 / 90 °F
Wind: 3 mph from West

Location: Fulton County Airport-Brown Field

Current Time: Jun 26, 2016 at 5:04:28 PM

Latest Report: Jun 26, 2016 at 3:53 PM


Visibility: 10 mi

Pressure: 30.09 "Hg

Humidity: 84%

Dew Point: 68 °F

Location of AtlantaLocation

Past Weather in Atlanta — Graph

°F

Atlanta Temperature Yesterday

Maximum temperature yesterday: 98 °F (at 4:53 PM)
Minimum temperature yesterday: 74 °F (at 4:53 AM)
Average temperature yesterday: 86 °F

High & Low Weather Summary for the Past Weeks

 TemperatureHumidityPressure
High98 °F (Jun 25, 4:53 PM)91% (Jun 14, 10:53 PM)30.34 "Hg (Jun 14, 10:53 PM)
Low59 °F (Jun 20, 6:53 AM)31% (Jun 13, 5:53 PM)29.79 "Hg (Jun 17, 4:53 PM)
Average80 °F62%30.03 "Hg
* Reported Jun 11 3:53 PM — Jun 26 3:53 PM, Atlanta, Weather by CustomWeather, © 2016

Note: Actual official high and low records may vary slightly from our data, if they occured in-between our weather recording intervals... More about our weather records

Advertising

Atlanta Weather History for the Previous 24 Hours

Scroll right to see more
 ConditionsComfort  
Time TempWeatherWind HumidityBarometerVisibility
3:53 PM
Sun, Jun 26
73 °FThundershowers. Scattered clouds.3 mph84%30.09 "Hg10 mi
2:53 PM72 °FStrong thunderstorms. Mostly cloudy.5 mph84%30.16 "Hg2 mi
1:53 PM83 °FThundershowers. Cloudy.16 mph63%30.14 "Hg10 mi
12:53 PM87 °FPartly sunny.6 mph55%30.13 "Hg10 mi
11:53 AM87 °FPassing clouds.10 mph55%30.14 "Hg10 mi
10:53 AM85 °FSunny.7 mph59%30.14 "Hg10 mi
9:53 AM83 °FSunny.10 mph63%30.14 "Hg10 mi
8:53 AM80 °FSunny.9 mph67%30.15 "Hg10 mi
7:53 AM79 °FPassing clouds.12 mph69%30.13 "Hg10 mi
6:53 AM77 °FClear.12 mph71%30.11 "Hg10 mi
5:53 AM77 °FClear.7 mph69%30.09 "Hg10 mi
4:53 AM78 °FClear.8 mph64%30.07 "Hg10 mi
3:53 AM80 °FClear.9 mph58%30.06 "Hg10 mi
2:53 AM82 °FClear.9 mph53%30.05 "Hg10 mi
1:53 AM79 °FClear.3 mph65%30.04 "Hg10 mi
12:53 AM81 °FClear.No wind60%30.06 "Hg10 mi
11:53 PM
Sat, Jun 25
80 °FPassing clouds.No wind71%30.06 "Hg10 mi
10:53 PM81 °FClear.5 mph67%30.04 "Hg10 mi
9:53 PM82 °FClear.No wind65%30.03 "Hg10 mi
8:53 PM87 °FSunny.No wind55%30.02 "Hg10 mi
7:53 PM94 °FSunny.3 mph38%30.01 "Hg10 mi
6:53 PM96 °FSunny.9 mph34%29.98 "Hg10 mi
5:53 PM96 °FSunny.6 mph36%29.98 "Hg10 mi
Weather by CustomWeather, © 2016

See weather overviewHow to use our weather pages